Weather in Novaya Kakhovka

Ukraine / Kherson District     46°45′00″N   33°21′32″E
temp.,
°C
wind,
m/s
gust,
m/s
humid.,
%
clouds,
%
prec.,
mm/h
press.,
hPa
HPBL,
m
16 september, thu
thu1600:00+15ne3428100 0.0 101846
03:00+14nne343430 0.0 101743
06:00+11n333919 0.0 101825
09:00+18nne342926 0.0 1018354
12:00+22nne4523100 0.0 10181380
15:00+24ne332193 0.0 10171789
18:00+22e34265 0.0 1017228
21:00+16e22390 0.0 101811
17 september, fri
fri1700:00+14ese11420 0.0 101811
03:00+13ene11451 0.0 101810
06:00+13ese22495 0.0 101711
09:00+19sse223240 0.0 1017273
12:00+24ssw332242 0.0 10161591
15:00+26ssw4321100 0.0 10141967
18:00+23ssw5826100 0.0 1013316
21:00+16ssw464837 0.0 101485
18 september, sat
sat1800:00+15sse476611 0.0 1013103
03:00+15s3465100 0.0 101271
06:00+17sse4764100 0.0 1011185
09:00+19s51059100 0.0 1011500
12:00+20s2662100 0.7 1011698
15:00+17ssw4987100 3.8 1011472
18:00+17s51091100 1.7 1010517
21:00+16s4894100 2.2 1011350
19 september, sun
sun1900:00+16sse3792100 0.5 1011242
03:00+16sse369091 1.7 1010191
06:00+16ese369069 2.6 1009207
09:00+17se3590100 7.7 1009317
12:00+22wsw3371100 1.7 1009434
15:00+25w364730 2.3 10081859
18:00+23wsw69471 0.0 1008431
21:00+18sw49674 0.0 1008209
20 september, mon
mon2000:00+17w36714 0.0 1008114
03:00+15w3681100 0.0 1009125
06:00+15wnw228296 0.0 100928
09:00+18wsw126695 0.0 1010297
12:00+18ne116585 0.1 1009121
15:00+22wnw3350100 0.3 10091325
18:00+18nw5754100 0.1 1009677
21:00+14nw7105549 0.1 1011572